STARLINK-11510 [DTC] (62516 NORAD) Tracking and Keplerian Element Data

This shows tracking and keplerian element data for the satellite.

Feedback or suggestion? Click here.




ElementValue
Catalog62516
NameSTARLINK-11510 [DTC]
Epoch Orbit543
Epoch Day35.12463482
Epoch Year2025
RAAN314.1458
Inclination42.9978
Eccentricity0.0001843
Argument of Perigee273.5441
Mean Anonmoly86.5218
Mean Motion15.7785384
Decay Rate4.456E-05
L11 62516U 25004F 25035.12463482 .00004456 00000+0 28459-4 0 9996
L22 62516 42.9978 314.1458 0001843 273.5441 86.5218 15.77853840 5439



Live tracking and technical data element details for STARLINK-11510 [DTC] (NORAD 62516). STARLINK-11510 [DTC] can be tracked NOW for your location showing map with azimuth and elevation plus other details from your city location.







IsCatalogInMostPopularTable: catalog: 62516, numindb: 17
Update: records affected: 1



GetName: 62516 STARLINK-11510 [DTC]

Hit Count: updated at: Sun, 18 May 2025 23:47:36 GMT